Simultaneous Nadir Overpasses (SNOs) Predictions

Prediction of SNOs between GOES-17 and AQUA Satellite Orbit:

Table of predicted SNOs for the next 14.0 days since TLE Epoch: 4/3/2020
Index Date Time (GOES-17) GOES-17 Lat,Lon AQUA Lat,Lon Distance(km) Time Diff (sec)
1 04/03/2020 22:58:30 0.02,-137.19 -0.74,-140.90 420.58 80
2 04/05/2020 22:46:18 0.01,-137.18 -0.16,-137.93 85.80 80
3 04/07/2020 22:36:47 0.01,-137.17 0.49,-134.98 248.43 80
4 04/08/2020 10:58:03 -0.01,-137.17 0.59,-140.14 337.25 80
5 04/10/2020 10:45:51 -0.01,-137.15 -0.01,-137.18 3.85 80
6 04/12/2020 10:30:59 -0.02,-137.12 -0.61,-134.22 328.91 80
7 04/12/2020 22:52:22 0.01,-137.10 -0.50,-139.41 263.81 80
8 04/14/2020 22:42:51 0.01,-137.06 0.11,-136.45 68.54 80
9 04/16/2020 22:30:40 0.01,-137.02 0.78,-133.50 400.51 80
10 04/17/2020 10:51:54 -0.00,-137.02 0.35,-138.65 185.34 80




NCC Satellite Simultaneous Nadir Overpasses (SNOs) Prediction Service
